Regional Weather Roundup
Issued by NWS

Home | Current Version | Previous Version | Graphics & Text | Print | Product List | Glossary On
Versions: 1 2 3 4 5 6 7 8 9 10 11 12 13 14 15 16 17 18 19 20 21 22 23 24 25 26 27 28 29 30 31 32 33 34 35 36 37 38 39 40 41 42 43 44 45 46 47 48 49
000
ASUS43 KDMX 220407
RWRIA

WEATHER ROUNDUP FOR IOWA
NATIONAL WEATHER SERVICE DES MOINES IA
1100 PM CDT SUN SEP 21 2014

NOTE: "FAIR" INDICATES FEW OR NO CLOUDS BELOW 12,000 FEET WITH NO
SIGNIFICANT WEATHER AND/OR OBSTRUCTIONS TO VISIBILITY.

* - THESE STATIONS ARE NOT NWS STATIONS...THUS NOT UNDER NWS
QUALITY CONTROL.  THEY ALSO DO NOT REPORT WEATHER SUCH
AS PRECIPITATION OR FOG.

IAZ001>003-012>014-020>022-031>034-043>046-220500-
   NORTHWEST IOWA

CITY           SKY/WX    TMP DP  RH WIND       PRES   REMARKS
CARROLL *      CLEAR     48  46  93 W3        30.25F
CHEROKEE *     CLEAR     50  50 100 CALM      30.27S FOG
DENISON *      CLEAR     50  50 100 CALM      30.25S
LE MARS *        N/A     48  48 100 CALM      30.27S
ORANGE CITY *  CLEAR     61  46  59 CALM      30.27S
SHELDON *      CLEAR     46  45  93 CALM      30.26S
SIOUX CITY     CLEAR     55  49  80 NE5       30.27R
SPENCER        CLEAR     50  46  86 N5        30.26S
STORM LAKE *   CLEAR     52  50  93 N5        30.27R
$$

IAZ055>058-069>071-079>083-090>094-220500-
   SOUTHWEST IOWA

CITY           SKY/WX    TMP DP  RH WIND       PRES   REMARKS
ATLANTIC *     CLEAR     50  48  93 CALM      30.26S
AUDUBON *      CLEAR     48  43  81 CALM      30.27S
CLARINDA *     CLEAR     48  48 100 CALM      30.28R
COUNCIL BLFS * CLEAR     57  50  77 NE5       30.26R
CRESTON *      CLEAR     55  48  76 N8        30.26S
HARLAN  *      CLEAR     48  48 100 CALM      30.30R
LAMONI         CLEAR     53  49  86 NW6       30.25R
RED OAK *      CLEAR     52  48  87 CALM      30.27R
SHENANDOAH *     N/A     52  48  87 CALM      30.27S
$$

IAZ047>049-059>061-072>074-084-220500-
   CENTRAL IOWA

CITY           SKY/WX    TMP DP  RH WIND       PRES   REMARKS
AMES           CLEAR     53  49  86 NW5       30.24R
ANKENY *       CLEAR     57  50  77 N5G12     30.24S
CHARITON *     CLEAR     54  50  87 NW5       30.24R
DES MOINES     CLEAR     59  49  69 N7        30.24R
GRINNELL*      CLEAR     50  46  87 NW6       30.24R
KNOXVILLE *    CLEAR     54  48  82 NW8       30.22R
MARSHALLTOWN   CLEAR     49  46  90 NW7       30.22R
PELLA *        CLEAR     52  48  87 N5        30.24R
PERRY *          N/A     52  48  86 NW3       30.25S
$$

IAZ004>006-015-016-023>025-035-036-220500-
   NORTH CENTRAL IOWA

CITY           SKY/WX    TMP DP  RH WIND       PRES   REMARKS
ALGONA *       CLEAR     54  48  82 NW5       30.25S
CLARION *        N/A     46  46 100 CALM      30.24S
ESTHERVILLE    CLEAR     47  45  93 NW7       30.26R
FORT DODGE *   CLEAR     48  46  93 CALM      30.25S
MASON CITY     CLEAR     48  46  93 NW6       30.24F
FOREST CITY *  CLEAR     50  50 100 CALM      30.24R
IOWA FALLS *     N/A     50  46  87 N5        30.24S
$$

IAZ007>011-017>019-026>030-037>042-050>054-066-220500-
   NORTHEAST IOWA

CITY           SKY/WX    TMP DP  RH WIND       PRES   REMARKS
CEDAR RAPIDS   CLEAR     50  48  93 NW3       30.20R
CHARLES CITY * CLEAR     50  46  87 NW6       30.23S
CLINTON *      CLEAR     48  45  87 N9        30.20R
DECORAH *      CLEAR     50  46  87 NW3       30.20F
DUBUQUE        CLEAR     51  46  83 N3        30.20R
MONTICELLO *   CLEAR     46  46 100 CALM      30.20R
OELWEIN *      CLEAR     48  46  93 NW5       30.23R
WATERLOO       CLEAR     50  47  89 NW6       30.21S
$$

IAZ064-065-067-068-078-220500-
   EAST CENTRAL IOWA

CITY           SKY/WX    TMP DP  RH WIND       PRES   REMARKS
DAVENPORT      CLEAR     50  45  83 NW6       30.18R
IOWA CITY        N/A     51  49  92 NW5       30.21R
MT. PLEASANT * CLEAR     55  48  76 NW5       30.20S
MUSCATINE *    CLEAR     54  48  82 NW6       30.20R
QUAD CITIES    CLEAR     57  47  69 N5        30.17R
$$

IAZ062-063-075>077-085>089-095>099-220500-
   SOUTHEAST IOWA

CITY           SKY/WX    TMP DP  RH WIND       PRES   REMARKS
BURLINGTON     LGT RAIN  55  50  83 NW7       30.19R
FAIRFIELD *    CLEAR     52  48  87 NW6       30.21S
FORT MADISON * CLEAR     55  52  88 NW5       30.20S
KEOKUK *       CLEAR     55  52  88 NW5       30.19R
OSKALOOSA *      N/A     50  48  93 NW8       30.23R
CENTERVILLE *  CLEAR     50  48  93 NW3       30.24R
OTTUMWA        CLEAR     51  47  86 NW8       30.22R
WASHINGTON *   CLEAR     52  50  93 NW6       30.20S
$$

ABBREVIATIONS USED IN REMARKS
   TC - TEMPERATURES IN CELSIUS
  WCI - WIND CHILL INDEX
   HX - HEAT INDEX
  VSB - VISIBILITY
$$




USA.gov is the U.S. government's official web portal to all federal, state and local government web resources and services.